TimeEDT,TemperatureF,Dew PointF,Humidity,Sea Level PressureIn,VisibilityMPH,Wind Direction,Wind SpeedMPH,Gust SpeedMPH,PrecipitationIn,Events,Conditions,WindDirDegrees,DateUTC
12:56 AM,71.1,69.1,93,29.86,5.0,SW,4.6,-,N/A,,Clear,220,2013-08-31 04:56:00
1:56 AM,73.0,70.0,90,29.85,6.0,WSW,6.9,-,N/A,,Clear,240,2013-08-31 05:56:00
2:42 AM,71.6,69.8,94,29.85,6.0,SW,4.6,-,N/A,,Mostly Cloudy,220,2013-08-31 06:42:00
2:49 AM,71.6,69.8,94,29.85,6.0,SW,5.8,-,N/A,,Scattered Clouds,230,2013-08-31 06:49:00
2:56 AM,72.0,70.0,93,29.85,6.0,SW,5.8,-,N/A,,Scattered Clouds,230,2013-08-31 06:56:00
3:56 AM,71.1,69.1,93,29.84,6.0,SW,4.6,-,N/A,,Clear,230,2013-08-31 07:56:00
4:32 AM,71.6,69.8,94,29.84,6.0,SW,3.5,-,N/A,,Mostly Cloudy,230,2013-08-31 08:32:00
4:56 AM,71.1,69.1,93,29.85,6.0,SW,4.6,-,N/A,,Mostly Cloudy,230,2013-08-31 08:56:00
5:27 AM,71.6,69.8,94,29.84,6.0,SW,6.9,-,N/A,,Scattered Clouds,230,2013-08-31 09:27:00
5:56 AM,71.1,69.1,93,29.85,6.0,SW,6.9,-,N/A,,Clear,230,2013-08-31 09:56:00
6:56 AM,72.0,70.0,93,29.85,5.0,SW,6.9,-,N/A,,Overcast,220,2013-08-31 10:56:00
7:56 AM,72.0,70.0,93,29.85,5.0,SSW,4.6,-,N/A,,Scattered Clouds,210,2013-08-31 11:56:00
8:06 AM,71.6,69.8,94,29.85,5.0,SW,4.6,-,N/A,,Mostly Cloudy,220,2013-08-31 12:06:00
8:56 AM,73.0,70.0,90,29.86,5.0,WSW,4.6,-,N/A,,Overcast,240,2013-08-31 12:56:00
9:56 AM,75.0,71.1,87,29.86,5.0,SW,11.5,-,N/A,,Overcast,230,2013-08-31 13:56:00
10:56 AM,75.0,70.0,84,29.87,5.0,SW,11.5,-,N/A,,Haze,230,2013-08-31 14:56:00
11:21 AM,75.2,69.8,83,29.86,5.0,SW,10.4,-,N/A,,Haze,230,2013-08-31 15:21:00
11:35 AM,75.2,69.8,83,29.86,5.0,SW,9.2,-,N/A,,Haze,230,2013-08-31 15:35:00
11:56 AM,73.9,70.0,87,29.86,4.0,SSW,5.8,-,N/A,,Overcast,200,2013-08-31 15:56:00
12:56 PM,79.0,72.0,79,29.85,6.0,SSW,8.1,-,N/A,,Haze,210,2013-08-31 16:56:00
1:56 PM,77.0,72.0,84,29.85,5.0,SW,9.2,-,N/A,,Haze,220,2013-08-31 17:56:00
2:56 PM,77.0,72.0,84,29.83,5.0,SW,13.8,-,N/A,,Haze,220,2013-08-31 18:56:00
3:56 PM,78.1,72.0,81,29.83,6.0,SW,12.7,-,N/A,,Haze,220,2013-08-31 19:56:00
4:56 PM,75.9,72.0,87,29.82,6.0,SSW,11.5,-,N/A,,Mostly Cloudy,210,2013-08-31 20:56:00
5:56 PM,75.0,71.1,87,29.82,6.0,SSW,10.4,-,N/A,,Partly Cloudy,210,2013-08-31 21:56:00
6:56 PM,73.9,71.1,91,29.83,6.0,SSW,9.2,-,N/A,,Clear,210,2013-08-31 22:56:00
7:56 PM,73.0,70.0,90,29.83,7.0,SSW,9.2,-,N/A,,Clear,210,2013-08-31 23:56:00
8:56 PM,72.0,70.0,93,29.85,6.0,SSW,4.6,-,N/A,,Scattered Clouds,200,2013-09-01 00:56:00
9:56 PM,73.0,70.0,90,29.86,7.0,SSW,8.1,-,N/A,,Clear,200,2013-09-01 01:56:00
10:56 PM,73.0,70.0,90,29.86,7.0,WSW,6.9,-,N/A,,Clear,240,2013-09-01 02:56:00
11:56 PM,73.9,71.1,91,29.86,7.0,WSW,4.6,-,N/A,,Scattered Clouds,240,2013-09-01 03:56:00